Location: Lake Zurich
(42.1970°N, 88.0930°W)
Time: 00:35:06
(UTC-05:00)

Amateur Radio Satellites - All Passes

Search period start: 26 May 2015 00:05
Search period end: 27 May 2015 00:05
Location: Lake Zurich, 42.1970°N, 88.0930°W

Satellite Date Start Highest point End Downlink Frequencies (MHz)
Time Altitude Azimuth
50 SAT 26 May 00:09:15 00:11:21 13° 270° (W) 00:13:16 437.505
CUSAT 1 26 May 00:11:27 00:18:58 70° 77° (ENE) 00:24:47 437.405
TISAT 1 26 May 00:21:23 00:25:36 72° 75° (ENE) 00:29:52 437.305
UNISAT 6 26 May 00:23:17 00:27:10 30° 291° (WNW) 00:30:55 437.425
BUGSAT 1 26 May 00:28:11 00:32:29 82° 285° (WNW) 00:36:44 437.445
GONETS M04 26 May 00:35:12 00:44:00 70° 79° (ENE) 00:52:42
O/OREOS (USA 219) 26 May 00:35:42 00:38:08 15° 51° (NE) 00:40:42 437.305
ITUPSAT 1 26 May 00:37:21 00:40:37 19° 65° (ENE) 00:44:03 437.325
ISS 26 May 00:39:34 00:42:49 77° 326° (NNW) 00:46:05 145.825
QB50P1 26 May 00:40:33 00:44:35 40° 288° (WNW) 00:48:35 145.935-145.965
POLYITAN 1 26 May 00:41:51 00:45:52 39° 289° (WNW) 00:49:49 437.675
ESTCUBE 1 26 May 00:43:35 00:45:55 13° 271° (W) 00:48:02 437.505/2401.250
BEESAT 26 May 00:45:25 00:49:06 23° 66° (ENE) 00:52:53 436.000
CUBEBUG 1 26 May 00:47:46 00:50:00 13° 271° (W) 00:52:03 437.445
SWISSCUBE 26 May 00:53:15 00:57:19 30° 68° (ENE) 01:01:28 437.505
Cosmos 2499 26 May 00:56:24 01:00:10 15° 60° (ENE) 01:04:20 435.465 / 435.565
ANTELSAT 26 May 01:08:28 01:10:08 12° 298° (WNW) 01:11:34 437.575/2403.000
NANOSAT C BR1 26 May 01:13:07 01:16:16 20° 293° (WNW) 01:19:18 145.865
DANDE 26 May 01:13:57 01:21:44 55° 268° (W) 01:27:56 436.750
QB50P2 26 May 01:20:30 01:23:17 16° 295° (WNW) 01:25:54 145.880/145.840
PCSat 26 May 01:28:43 01:34:07 78° 118° (ESE) 01:39:35 145.827
SPROUT 26 May 01:30:49 01:33:35 16° 270° (W) 01:36:10 437.525
POPSAT HIP 1 26 May 01:33:46 01:35:48 13° 297° (WNW) 01:37:36 437.405
DUCHIFAT 1 26 May 01:36:58 01:38:45 12° 297° (WNW) 01:40:19 145.980
BEESAT 3 26 May 01:40:50 01:42:18 12° 36° (NE) 01:43:52 437.485
CUSAT 1 26 May 01:55:34 02:00:39 20° 279° (W) 02:04:48 437.405
VERMONT LUNAR 26 May 02:06:07 02:08:17 17° 153° (SSE) 02:10:29 437.305
Oscar 19 26 May 02:09:27 02:14:31 54° 100° (E) 02:19:32 437.125/150
ITUPSAT 1 26 May 02:13:36 02:18:12 49° 261° (W) 02:22:50 437.325
O/OREOS (USA 219) 26 May 02:13:38 02:18:05 66° 251° (WSW) 02:22:30 437.305
STARS 26 May 02:16:52 02:20:14 22° 67° (ENE) 02:23:44 437.465
ISS 26 May 02:17:08 02:19:39 20° 345° (NNW) 02:22:09 145.825
ITAMSAT 1 26 May 02:21:36 02:25:25 21° 92° (E) 02:29:22 435.822/435.867
BEESAT 26 May 02:22:17 02:26:45 39° 263° (W) 02:31:12 436.000
BEESAT 2 26 May 02:26:43 02:29:58 22° 44° (NE) 02:33:15 435.950
SWISSCUBE 26 May 02:30:58 02:35:09 30° 264° (W) 02:39:18 437.505
GONETS M04 26 May 02:33:15 02:40:08 25° 278° (W) 02:46:40
KKS-1 26 May 02:44:52 02:49:19 68° 74° (ENE) 02:53:48 437.445
Cosmos 2499 26 May 02:47:27 02:54:34 90° 76° (ENE) 03:01:44 435.465 / 435.565
Gurwin Techsat 1B 26 May 02:51:40 02:56:34 38° 96° (E) 03:01:31 435.225
SO-50 26 May 03:12:48 03:17:01 36° 116° (ESE) 03:21:27 436.795
PCSat 26 May 03:14:17 03:18:14 20° 318° (NW) 03:22:04 145.827
BEESAT 3 26 May 03:16:56 03:21:02 78° 56° (NE) 03:25:03 437.485
JAS-2 26 May 03:26:18 03:28:32 13° 88° (E) 03:31:05 435.910
HORYU 2 26 May 03:29:53 03:31:56 13° 89° (E) 03:34:12 437.375
VERMONT LUNAR 26 May 03:41:58 03:45:06 49° 168° (SSE) 03:48:12 437.305
AIST 2 26 May 03:46:43 03:50:42 39° 50° (NE) 03:54:39 435.215
Oscar 19 26 May 03:49:44 03:53:31 20° 296° (WNW) 03:57:07 437.125/150
STARS 26 May 03:52:22 03:56:30 37° 263° (W) 04:00:38 437.465
ISS 26 May 03:54:48 03:56:56 16° 6° (N) 03:59:06 145.825
PHONESAT 2.4 26 May 03:57:08 04:00:12 29° 159° (SSE) 04:03:17 2401.200-2431.200
ITAMSAT 1 26 May 04:00:12 04:05:15 50° 289° (WNW) 04:10:16 435.822/435.867
BEESAT 2 26 May 04:04:21 04:08:14 40° 243° (WSW) 04:12:01 435.950
MOZHAYETS 4 26 May 04:05:57 04:10:10 38° 71° (ENE) 04:14:25
AO-7 26 May 04:14:29 04:22:01 37° 96° (E) 04:29:40 29.400- 29.500
KKS-1 26 May 04:24:45 04:26:30 12° 272° (W) 04:27:59 437.445
Gurwin Techsat 1B 26 May 04:31:53 04:36:26 29° 294° (WNW) 04:40:54 435.225
Cosmos 2499 26 May 04:43:11 04:46:47 14° 280° (W) 04:49:58 435.465 / 435.565
SO-50 26 May 04:53:21 04:57:37 32° 314° (NW) 05:01:58 436.795
HORYU 2 26 May 05:04:39 05:09:02 58° 287° (WNW) 05:13:21 437.375
JAS-2 26 May 05:09:13 05:14:23 70° 286° (WNW) 05:19:39 435.910
VERMONT LUNAR 26 May 05:18:59 05:22:09 62° 185° (S) 05:25:19 437.305
AIST 2 26 May 05:25:48 05:29:04 21° 247° (WSW) 05:32:11 435.215
ISS 26 May 05:31:00 05:34:03 35° 25° (NNE) 05:37:07 145.825
PHONESAT 2.4 26 May 05:34:37 05:38:04 64° 175° (S) 05:41:30 2401.200-2431.200
CUBESAT XI-V 26 May 05:41:51 05:45:53 32° 69° (ENE) 05:50:01 437.345
MOZHAYETS 4 26 May 05:44:00 05:47:33 21° 268° (W) 05:50:59
PRISM 26 May 05:56:34 05:59:32 20° 67° (ENE) 06:02:36 437.425
CUTE-I 26 May 06:06:01 06:09:25 18° 90° (E) 06:13:02 437.470
AO-7 26 May 06:07:03 06:15:06 52° 296° (WNW) 06:23:04 29.400- 29.500
M-CUBED/EXP-1 PRIME 26 May 06:18:23 06:21:54 27° 65° (ENE) 06:25:15 437.505
Cosmos 2491 26 May 06:19:37 06:28:09 50° 74° (ENE) 06:36:39 435.465 / 435.565
Cubesat XI-IV 26 May 06:25:33 06:30:00 27° 94° (E) 06:34:32 437.490
AUBIESAT-1 26 May 06:27:27 06:31:01 29° 66° (ENE) 06:34:25 437.475
STRAND 1 26 May 06:34:54 06:39:47 50° 71° (ENE) 06:44:44 437.568
VERMONT LUNAR 26 May 06:56:17 06:59:06 28° 201° (SSW) 07:01:54 437.305
ISS 26 May 07:07:28 07:10:27 32° 223° (SW) 07:13:24 145.825
YUBILEINY 26 May 07:12:06 07:20:11 45° 88° (E) 07:28:20 435.215
PHONESAT 2.4 26 May 07:12:40 07:16:03 53° 192° (SSW) 07:19:26 2401.200-2431.200
CUBESAT XI-V 26 May 07:19:29 07:23:22 26° 266° (W) 07:27:12 437.345
PRISM 26 May 07:31:03 07:34:48 34° 263° (W) 07:38:32 437.425
AIST 1 26 May 07:44:23 07:48:36 46° 78° (ENE) 07:52:51
CUTE-I 26 May 07:44:42 07:50:00 61° 288° (WNW) 07:55:17 437.470
M-CUBED/EXP-1 PRIME 26 May 07:53:02 07:56:41 27° 258° (WSW) 08:00:05 437.505
AUBIESAT-1 26 May 08:02:18 08:05:47 24° 259° (W) 08:09:01 437.475
AO-7 26 May 08:02:44 08:06:09 13° 316° (NW) 08:09:10 29.400- 29.500
Cubesat XI-IV 26 May 08:05:14 08:10:15 41° 291° (WNW) 08:15:14 437.490
RS-15 26 May 08:09:31 08:18:21 32° 106° (ESE) 08:27:42 29.354- 29.394
DOVE 4 26 May 08:13:04 08:14:16 11° 84° (E) 08:15:47 437.250
STRAND 1 26 May 08:15:35 08:19:20 20° 269° (W) 08:22:57 437.568
Cosmos 2491 26 May 08:16:55 08:24:49 37° 274° (W) 08:32:30 435.465 / 435.565
PCSat 26 May 08:34:21 08:37:04 14° 36° (NE) 08:39:57 145.827
BRITE-PL 26 May 08:35:19 08:40:48 48° 97° (E) 08:46:04 437.365/2234.400
GOMX 1 26 May 08:42:51 08:47:47 36° 94° (E) 08:52:31 467.674
PHONESAT 2.4 26 May 08:51:13 08:53:47 19° 207° (SSW) 08:56:18 2401.200-2431.200
Cosmos 2504 26 May 09:02:24 09:08:07 22° 83° (E) 09:13:56 435.465 / 435.565
CANX-2 26 May 09:05:11 09:09:04 35° 97° (E) 09:12:56 2200.000
YUBILEINY 26 May 09:08:53 09:17:07 42° 289° (WNW) 09:25:14 435.215
CUTE 1.7 + AOD 2 26 May 09:08:53 09:12:45 35° 96° (E) 09:16:37 437.475
Oscar 11 26 May 09:15:50 09:16:40 11° 87° (E) 09:17:46 145.826/435.025
AIST 1 26 May 09:23:16 09:25:54 15° 273° (W) 09:28:22
TIGRISAT 26 May 09:27:04 09:29:57 17° 65° (ENE) 09:32:59 435.000
CINEMA 3 26 May 09:32:26 09:36:42 33° 95° (E) 09:40:49 145.822/145.860
HO-68 26 May 09:32:32 09:39:39 65° 102° (ESE) 09:46:44 435.675
SEEDS 26 May 09:32:43 09:36:49 53° 99° (E) 09:40:55 437.485
UWE-3 26 May 09:43:22 09:46:04 16° 89° (E) 09:48:53 435.000/436.395/437.385
UNISAT 6 26 May 09:46:02 09:49:52 26° 68° (ENE) 09:53:46 437.425
COMPASS 1 26 May 09:47:19 09:51:27 64° 100° (E) 09:55:35 437.405
DOVE 4 26 May 09:47:42 09:52:54 85° 284° (WNW) 09:57:48 437.250
FUNcube-1 26 May 09:55:40 09:58:24 17° 90° (E) 10:01:14 145.935
QB50P1 26 May 09:59:30 10:01:59 16° 65° (ENE) 10:04:39 145.935-145.965
AAUSAT CUBESAT 2 26 May 10:00:12 10:04:21 77° 102° (ESE) 10:08:28 437.432
POLYITAN 1 26 May 10:00:51 10:03:30 17° 65° (ENE) 10:06:18 437.675
BRITE-PL 26 May 10:14:21 10:19:00 26° 295° (WNW) 10:23:24 437.365/2234.400
PCSat 26 May 10:16:11 10:21:37 68° 58° (ENE) 10:27:00 145.827
RS-15 26 May 10:18:59 10:29:52 73° 307° (NW) 10:41:08 29.354- 29.394
GOMX 1 26 May 10:21:04 10:25:47 31° 293° (WNW) 10:30:16 467.674
ANTELSAT 26 May 10:28:22 10:33:03 69° 75° (ENE) 10:37:41 437.575/2403.000
CUBEBUG 2 26 May 10:29:27 10:33:55 65° 101° (E) 10:38:13 437.445
NANOSAT C BR1 26 May 10:29:43 10:33:29 31° 70° (ENE) 10:37:18 145.865
DELFI C3 26 May 10:33:03 10:37:01 58° 100° (E) 10:40:58 145.870
ZACube-1 26 May 10:34:48 10:39:00 46° 98° (E) 10:43:05 437.345
HUMSAT D 26 May 10:36:15 10:39:24 21° 93° (E) 10:42:37 437.325/437.525
QB50P2 26 May 10:36:53 10:40:51 38° 71° (ENE) 10:44:52 145.880/145.840
UKube-1 26 May 10:38:52 10:42:15 22° 94° (E) 10:45:42 .
CANX-2 26 May 10:41:38 10:44:47 20° 293° (WNW) 10:47:51 2200.000
CUTE 1.7 + AOD 2 26 May 10:45:18 10:48:29 20° 292° (WNW) 10:51:33 437.475
DX 1 26 May 10:46:06 10:49:54 29° 95° (E) 10:53:45 434.975-435.025
Oscar 11 26 May 10:49:07 10:53:25 68° 284° (WNW) 10:57:40 145.826/435.025
POPSAT HIP 1 26 May 10:49:09 10:53:18 51° 73° (ENE) 10:57:30 437.405
DUCHIFAT 1 26 May 10:51:45 10:55:54 53° 73° (ENE) 11:00:06 145.980
Cosmos 2504 26 May 10:52:30 11:00:54 75° 280° (W) 11:08:44 435.465 / 435.565
VELOX 1 26 May 10:57:31 11:00:44 20° 92° (E) 11:04:03 145.980
ESTCUBE 1 26 May 10:58:29 11:00:04 12° 88° (E) 11:01:55 437.505/2401.250
CUBEBUG 1 26 May 11:00:24 11:00:51 10° 87° (E) 11:01:35 437.445
TIGRISAT 26 May 11:01:42 11:06:19 56° 260° (W) 11:10:55 435.000
CINEMA 3 26 May 11:09:47 11:13:47 26° 293° (WNW) 11:17:33 145.822/145.860
SEEDS 26 May 11:09:57 11:12:14 14° 295° (WNW) 11:14:20 437.485
BUGSAT 1 26 May 11:18:24 11:22:31 73° 76° (ENE) 11:26:44 437.445
UWE-3 26 May 11:18:42 11:22:56 45° 288° (WNW) 11:27:01 435.000/436.395/437.385
HO-68 26 May 11:21:06 11:26:55 27° 300° (WNW) 11:32:33 435.675
UNISAT 6 26 May 11:22:15 11:26:32 34° 264° (W) 11:30:45 437.425
COMPASS 1 26 May 11:24:58 11:26:40 12° 296° (WNW) 11:28:11 437.405
DOVE 4 26 May 11:27:56 11:29:50 12° 301° (WNW) 11:31:26 437.250
AISAT 26 May 11:28:06 11:32:24 42° 98° (E) 11:36:40 437.250
FUNcube-1 26 May 11:30:54 11:35:02 42° 288° (WNW) 11:39:01 145.935
QB50P1 26 May 11:33:19 11:37:29 51° 260° (W) 11:41:42 145.935-145.965
POLYITAN 1 26 May 11:34:53 11:39:04 48° 261° (W) 11:43:16 437.675
CUSAT 1 26 May 11:37:25 11:41:07 15° 78° (ENE) 11:45:31 437.405
AAUSAT CUBESAT 2 26 May 11:39:00 11:39:25 10° 297° (WNW) 11:39:35 437.432
50 SAT 26 May 11:42:52 11:46:45 70° 101° (ESE) 11:50:35 437.505
SO-50 26 May 11:43:27 11:48:08 40° 48° (NE) 11:52:46 436.795
GONETS M04 26 May 11:45:10 11:49:22 15° 77° (ENE) 11:54:09
Oscar 19 26 May 11:51:40 11:53:12 11° 59° (ENE) 11:55:01 437.125/150
PCSat 26 May 12:01:01 12:04:31 17° 254° (WSW) 12:07:48 145.827
NANOSAT C BR1 26 May 12:05:53 12:09:21 23° 266° (W) 12:12:46 145.865
CUBEBUG 2 26 May 12:07:53 12:10:05 13° 297° (WNW) 12:12:04 437.445
TISAT 1 26 May 12:07:59 12:09:00 11° 88° (E) 12:10:17 437.305
ANTELSAT 26 May 12:08:16 12:10:22 12° 272° (W) 12:12:12 437.575/2403.000
DELFI C3 26 May 12:09:57 12:11:42 12° 296° (WNW) 12:13:16 145.870
HUMSAT D 26 May 12:11:30 12:15:15 32° 290° (WNW) 12:18:53 437.325/437.525
ZACube-1 26 May 12:12:09 12:15:01 17° 295° (WNW) 12:17:42 437.345
QB50P2 26 May 12:13:47 12:16:55 19° 268° (W) 12:19:57 145.880/145.840
UKube-1 26 May 12:14:31 12:18:29 34° 290° (WNW) 12:22:22 .
DX 1 26 May 12:22:21 12:26:06 27° 292° (WNW) 12:29:46 434.975-435.025
POPSAT HIP 1 26 May 12:27:04 12:29:32 14° 270° (W) 12:31:49 437.405
DUCHIFAT 1 26 May 12:29:48 12:32:07 14° 271° (W) 12:34:13 145.980
ESTCUBE 1 26 May 12:32:58 12:37:29 68° 285° (WNW) 12:41:59 437.505/2401.250
VELOX 1 26 May 12:33:16 12:37:29 40° 289° (WNW) 12:41:39 145.980
CUBEBUG 1 26 May 12:33:21 12:37:49 75° 285° (WNW) 12:42:15 437.445
RS-15 26 May 12:35:28 12:44:44 29° 337° (NNW) 12:54:08 29.354- 29.394
DANDE 26 May 12:40:20 12:46:32 35° 86° (E) 12:53:54 436.750
Cosmos 2504 26 May 12:51:24 12:55:50 15° 301° (WNW) 12:59:38 435.465 / 435.565
AISAT 26 May 13:05:24 13:08:42 20° 294° (WNW) 13:11:53 437.250
SPROUT 26 May 13:14:57 13:19:20 88° 102° (ESE) 13:23:40 437.525
CUSAT 1 26 May 13:15:12 13:22:27 75° 97° (E) 13:30:47 437.405
SO-50 26 May 13:24:17 13:28:33 29° 246° (WSW) 13:32:42 436.795
Oscar 19 26 May 13:26:37 13:31:49 82° 73° (ENE) 13:37:03 437.125/150
AO-7 26 May 13:27:40 13:30:40 13° 44° (NE) 13:34:06 29.400- 29.500
GONETS M04 26 May 13:36:07 13:44:55 79° 95° (E) 13:53:48
Cosmos 2499 26 May 13:36:48 13:39:27 12° 79° (E) 13:42:37 435.465 / 435.565
ITAMSAT 1 26 May 13:39:53 13:44:27 34° 68° (ENE) 13:49:07 435.822/435.867
TISAT 1 26 May 13:41:03 13:45:19 66° 285° (WNW) 13:49:31 437.305
Gurwin Techsat 1B 26 May 14:13:07 14:18:20 63° 73° (ENE) 14:23:37 435.225
ITUPSAT 1 26 May 14:13:35 14:18:05 40° 98° (E) 14:22:37 437.325
BEESAT 26 May 14:21:37 14:26:16 50° 100° (E) 14:30:54 436.000
DANDE 26 May 14:22:26 14:29:27 53° 288° (WNW) 14:37:40 436.750
HORYU 2 26 May 14:28:55 14:31:20 15° 64° (ENE) 14:33:55 437.375
SWISSCUBE 26 May 14:29:56 14:34:42 66° 101° (E) 14:39:28 437.505
KKS-1 26 May 14:37:27 14:39:19 13° 88° (E) 14:41:24 437.445
O/OREOS (USA 219) 26 May 14:49:43 14:51:40 13° 100° (E) 14:53:51 437.305
RS-15 26 May 14:53:30 15:02:06 24° 11° (NNE) 15:11:08 29.354- 29.394
CUSAT 1 26 May 14:59:51 15:06:08 26° 299° (WNW) 15:12:42 437.405
Oscar 19 26 May 15:09:44 15:11:55 12° 273° (W) 15:13:47 437.125/150
AO-7 26 May 15:13:50 15:21:44 53° 64° (ENE) 15:29:46 29.400- 29.500
ITAMSAT 1 26 May 15:19:24 15:23:59 31° 265° (W) 15:28:31 435.822/435.867
JAS-2 26 May 15:20:51 15:27:19 53° 72° (ENE) 15:33:05 435.910
Cosmos 2499 26 May 15:23:28 15:31:36 74° 95° (E) 15:39:10 435.465 / 435.565
GONETS M04 26 May 15:35:59 15:42:55 24° 298° (WNW) 15:49:34
STARS 26 May 15:41:24 15:45:32 38° 98° (E) 15:49:38 437.465
ITUPSAT 1 26 May 15:51:59 15:55:46 23° 294° (WNW) 15:59:27 437.325
Gurwin Techsat 1B 26 May 15:55:22 15:58:51 17° 271° (W) 16:02:06 435.225
BEESAT 26 May 16:00:23 16:03:47 19° 296° (WNW) 16:07:02 436.000
HORYU 2 26 May 16:03:07 16:07:33 60° 259° (W) 16:11:59 437.375
SWISSCUBE 26 May 16:09:19 16:12:05 15° 298° (WNW) 16:14:40 437.505
KKS-1 26 May 16:12:00 16:16:27 63° 286° (WNW) 16:20:52 437.445
DANDE 26 May 16:12:03 16:15:09 12° 312° (NW) 16:17:50 436.750
O/OREOS (USA 219) 26 May 16:26:10 16:30:38 61° 295° (WNW) 16:35:07 437.305
JAS-2 26 May 17:07:10 17:12:40 25° 266° (W) 17:17:32 435.910
RS-15 26 May 17:07:12 17:18:16 50° 43° (NE) 17:29:52 29.354- 29.394
AO-7 26 May 17:07:18 17:14:50 36° 264° (W) 17:22:17 29.400- 29.500
BEESAT 3 26 May 17:12:31 17:14:06 12° 110° (ESE) 17:15:53 437.485
STARS 26 May 17:18:22 17:21:45 21° 294° (WNW) 17:25:03 437.465
Cosmos 2499 26 May 17:19:26 17:25:33 22° 295° (WNW) 17:31:06 435.465 / 435.565
YUBILEINY 26 May 17:21:56 17:28:12 22° 61° (ENE) 17:34:49 435.215
CUTE-I 26 May 17:28:03 17:32:36 31° 67° (ENE) 17:37:16 437.470
MOZHAYETS 4 26 May 17:37:09 17:41:45 87° 103° (ESE) 17:46:20
Cubesat XI-IV 26 May 17:47:56 17:52:58 46° 70° (ENE) 17:58:04 437.490
BEESAT 2 26 May 17:58:23 18:02:00 31° 115° (ESE) 18:05:42 435.950
HO-68 26 May 18:21:15 18:21:55 10° 48° (NE) 18:23:01 435.675
STRAND 1 26 May 18:46:06 18:49:09 16° 89° (E) 18:52:25 437.568
BEESAT 3 26 May 18:47:33 18:51:37 64° 305° (NW) 18:55:43 437.485
CUTE-I 26 May 19:07:45 19:12:37 35° 264° (W) 19:17:28 437.470
PRISM 26 May 19:12:39 19:16:17 29° 96° (E) 19:19:57 437.425
CUBESAT XI-V 26 May 19:14:33 19:19:17 75° 102° (ESE) 19:23:59 437.345
MOZHAYETS 4 26 May 19:17:14 19:18:22 11° 299° (WNW) 19:19:14
YUBILEINY 26 May 19:17:32 19:26:17 82° 264° (W) 19:34:57 435.215
DOVE 4 26 May 19:18:19 19:20:53 14° 61° (ENE) 19:23:42 437.250
RS-15 26 May 19:19:48 19:31:07 58° 246° (WSW) 19:42:46 29.354- 29.394
Cosmos 2491 26 May 19:21:01 19:29:28 57° 91° (E) 19:38:04 435.465 / 435.565
AIST 2 26 May 19:22:52 19:27:07 71° 121° (ESE) 19:31:24 435.215
Cubesat XI-IV 26 May 19:29:06 19:33:20 23° 268° (W) 19:37:28 437.490
M-CUBED/EXP-1 PRIME 26 May 19:34:26 19:36:07 14° 97° (E) 19:37:56 437.505
BEESAT 2 26 May 19:36:30 19:40:06 28° 313° (NW) 19:43:41 435.950
AUBIESAT-1 26 May 19:42:46 19:44:41 15° 98° (E) 19:46:44 437.475
BRITE-PL 26 May 19:46:04 19:51:01 54° 72° (ENE) 19:56:22 437.365/2234.400
GOMX 1 26 May 19:50:48 19:55:33 40° 70° (ENE) 20:00:37 467.674
CANX-2 26 May 19:58:46 20:02:23 28° 70° (ENE) 20:06:04 2200.000
HO-68 26 May 20:01:20 20:08:11 51° 67° (ENE) 20:15:05 435.675
CUTE 1.7 + AOD 2 26 May 20:02:24 20:06:00 28° 70° (ENE) 20:09:39 437.475
Oscar 11 26 May 20:12:27 20:12:45 10° 62° (ENE) 20:13:17 145.826/435.025
AIST 1 26 May 20:14:52 20:18:22 26° 90° (E) 20:21:59
STRAND 1 26 May 20:23:46 20:28:52 62° 287° (WNW) 20:33:56 437.568
SEEDS 26 May 20:25:11 20:29:07 40° 72° (ENE) 20:33:05 437.485
BEESAT 3 26 May 20:29:42 20:30:28 10° 326° (NW) 20:31:07 437.485
CINEMA 3 26 May 20:34:00 20:38:28 34° 70° (ENE) 20:43:02 145.822/145.860
COMPASS 1 26 May 20:38:54 20:42:53 45° 73° (ENE) 20:46:54 437.405
UWE-3 26 May 20:41:03 20:43:59 17° 65° (ENE) 20:47:04 435.000/436.395/437.385
Cosmos 2504 26 May 20:44:50 20:51:28 38° 72° (ENE) 20:58:07 435.465 / 435.565
PRISM 26 May 20:48:16 20:51:38 24° 292° (WNW) 20:54:56 437.425
AAUSAT CUBESAT 2 26 May 20:51:14 20:55:18 54° 74° (ENE) 20:59:22 437.432
FUNcube-1 26 May 20:52:06 20:54:55 17° 65° (ENE) 20:57:54 145.935
DOVE 4 26 May 20:52:49 20:57:56 83° 258° (WSW) 21:03:17 437.250
CUBESAT XI-V 26 May 20:53:57 20:56:10 13° 297° (WNW) 20:58:11 437.345
AIST 2 26 May 21:03:22 21:06:12 17° 320° (NW) 21:08:56 435.215
M-CUBED/EXP-1 PRIME 26 May 21:08:12 21:11:11 30° 294° (WNW) 21:14:06 437.505
AUBIESAT-1 26 May 21:16:44 21:19:37 28° 294° (WNW) 21:22:29 437.475
YUBILEINY 26 May 21:16:59 21:21:52 16° 283° (WNW) 21:26:12 435.215
Cosmos 2491 26 May 21:19:01 21:26:52 33° 292° (WNW) 21:34:34 435.465 / 435.565
DELFI C3 26 May 21:20:53 21:24:35 37° 72° (ENE) 21:28:20 145.870
BRITE-PL 26 May 21:26:12 21:29:59 20° 272° (W) 21:33:47 437.365/2234.400
CUBEBUG 2 26 May 21:27:26 21:32:08 59° 74° (ENE) 21:36:50 437.445
HUMSAT D 26 May 21:28:55 21:31:48 18° 66° (ENE) 21:34:48 437.325/437.525
GOMX 1 26 May 21:29:25 21:33:49 27° 268° (W) 21:38:18 467.674
ZACube-1 26 May 21:30:49 21:35:07 41° 71° (ENE) 21:39:26 437.345
UKube-1 26 May 21:34:30 21:37:43 21° 66° (ENE) 21:41:03 .
CANX-2 26 May 21:34:42 21:38:18 25° 266° (W) 21:41:50 2200.000
CUTE 1.7 + AOD 2 26 May 21:38:17 21:41:53 26° 266° (W) 21:45:27 437.475
RS-15 26 May 21:38:41 21:41:32 11° 264° (W) 21:43:03 29.354- 29.394
DX 1 26 May 21:42:19 21:45:59 27° 68° (ENE) 21:49:43 434.975-435.025
Oscar 11 26 May 21:44:00 21:48:21 84° 260° (W) 21:52:42 145.826/435.025
HO-68 26 May 21:49:50 21:56:11 32° 265° (W) 22:02:26 435.675
AIST 1 26 May 21:52:25 21:56:00 25° 287° (WNW) 21:59:32
VELOX 1 26 May 21:55:57 21:59:06 20° 66° (ENE) 22:02:22 145.980
CUBEBUG 1 26 May 21:57:58 21:58:20 10° 61° (ENE) 21:58:58 437.445
ESTCUBE 1 26 May 21:59:05 22:01:00 13° 63° (ENE) 22:03:07 437.505/2401.250
SEEDS 26 May 22:02:12 22:05:08 18° 269° (W) 22:07:55 437.485
CINEMA 3 26 May 22:11:20 22:15:40 29° 266° (W) 22:20:01 145.822/145.860
CUSAT 1 26 May 22:15:21 22:17:22 11° 49° (NE) 22:19:42 437.405
UWE-3 26 May 22:15:31 22:20:08 55° 261° (W) 22:24:44 435.000/436.395/437.385
COMPASS 1 26 May 22:16:18 22:18:51 15° 270° (W) 22:21:15 437.405
ANTELSAT 26 May 22:21:57 22:23:54 13° 88° (E) 22:26:04 437.575/2403.000
AISAT 26 May 22:26:19 22:30:28 41° 71° (ENE) 22:34:41 437.250
FUNcube-1 26 May 22:26:23 22:30:53 54° 261° (W) 22:35:22 145.935
50 SAT 26 May 22:27:49 22:31:35 41° 73° (ENE) 22:35:22 437.505
AAUSAT CUBESAT 2 26 May 22:29:19 22:31:19 13° 271° (W) 22:33:06 437.432
Cosmos 2504 26 May 22:38:18 22:44:51 38° 272° (W) 22:51:17 435.465 / 435.565
TIGRISAT 26 May 22:53:31 22:57:17 28° 95° (E) 23:01:01 435.000
DELFI C3 26 May 22:57:08 22:59:54 17° 269° (W) 23:02:31 145.870
BUGSAT 1 26 May 23:02:53 23:03:41 11° 87° (E) 23:04:45 437.445
HUMSAT D 26 May 23:03:07 23:07:16 43° 262° (W) 23:11:23 437.325/437.525
CUBEBUG 2 26 May 23:06:22 23:09:15 15° 271° (W) 23:11:55 437.445
ZACube-1 26 May 23:08:10 23:11:39 20° 268° (W) 23:15:01 437.345
UKube-1 26 May 23:09:39 23:13:40 36° 263° (W) 23:17:40 .
UNISAT 6 26 May 23:13:31 23:17:47 48° 99° (E) 23:21:57 437.425
QB50P1 26 May 23:18:23 23:21:52 24° 94° (E) 23:25:25 145.935-145.965
DX 1 26 May 23:18:25 23:22:11 28° 265° (W) 23:25:56 434.975-435.025
POLYITAN 1 26 May 23:20:12 23:23:47 26° 94° (E) 23:27:23 437.675
DANDE 26 May 23:22:10 23:28:57 30° 63° (ENE) 23:34:45 436.750
CUBEBUG 1 26 May 23:29:43 23:34:04 86° 257° (WSW) 23:38:30 437.445
VELOX 1 26 May 23:31:11 23:35:23 42° 262° (W) 23:39:37 145.980
ESTCUBE 1 26 May 23:32:54 23:37:22 70° 258° (WSW) 23:41:52 437.505/2401.250
GONETS M04 26 May 23:46:10 23:54:15 40° 71° (ENE) 00:02:23
ISS 26 May 23:46:27 23:49:37 55° 142° (SE) 23:52:49 145.825
NANOSAT C BR1 26 May 23:49:19 23:53:31 53° 100° (E) 23:57:41 145.865
